This is the latest recevied weather packets stored in our database for station/object N5DGC. If no packets are shown the sender has not sent any weather packets the latest 10 day(s).
| Time | Temp. | Humidity | Pressure | Rain* | Wind** | Luminosity | Snow |
|---|---|---|---|---|---|---|---|
| 1777989873 | 12.22° C | 58% | 1232.2 hPa | 0 mm | - | 43 W/m² | - |
| 1777989569 | 12.22° C | 55% | 1232.5 hPa | 0 mm | - | 43 W/m² | - |
| 1777989266 | 12.78° C | 52% | 1232.2 hPa | 0 mm | - | 34 W/m² | - |
| 1777988962 | 13.33° C | 48% | 1232.4 hPa | 0 mm | - | 29 W/m² | - |
| 1777988659 | 13.89° C | 41% | 1232.2 hPa | 0 mm | - | 25 W/m² | - |
| 1777988355 | 13.89° C | 40% | 1232.1 hPa | 0 mm | - | 24 W/m² | - |
| 1777988053 | 13.89° C | 40% | 1232.1 hPa | 0 mm | - | 23 W/m² | - |
| 1777987748 | 13.89° C | 40% | 1232 hPa | 0 mm | - | 22 W/m² | - |
| 1777987446 | 13.89° C | 39% | 1232 hPa | 0 mm | - | 14 W/m² | - |
| 1777987143 | 13.89° C | 39% | 1231.8 hPa | 0 mm | - | 11 W/m² | - |
| 1777986840 | 13.89° C | 39% | 1231.5 hPa | 0 mm | - | 10 W/m² | - |
| 1777986538 | 13.89° C | 39% | 1231.4 hPa | 0 mm | - | 10 W/m² | - |
| 1777986235 | 13.89° C | 39% | 1231.5 hPa | 0 mm | - | 8 W/m² | - |
| 1777985932 | 13.89° C | 39% | 1231.3 hPa | 0 mm | - | 9 W/m² | - |
| 1777985630 | 13.89° C | 39% | 1231.2 hPa | 0 mm | - | 9 W/m² | - |
| 1777985326 | 13.89° C | 39% | 1231.2 hPa | 0 mm | - | 10 W/m² | - |
| 1777985023 | 13.89° C | 38% | 1231.1 hPa | 0 mm | - | 9 W/m² | - |
| 1777984719 | 13.89° C | 38% | 1231.1 hPa | 0 mm | - | 7 W/m² | - |
| 1777984416 | 13.89° C | 38% | 1231.2 hPa | 0 mm | - | 4 W/m² | - |
| 1777984112 | 13.89° C | 38% | 1231.4 hPa | 0 mm | - | 3 W/m² | - |
| 1777983809 | 13.89° C | 37% | 1231.2 hPa | 0 mm | - | 2 W/m² | - |
| 1777983506 | 13.89° C | 37% | 1231.2 hPa | 0 mm | - | 1 W/m² | - |
| 1777983203 | 13.89° C | 37% | 1231.2 hPa | 0 mm | - | 1 W/m² | - |
| 1777982899 | 13.89° C | 37% | 1231.1 hPa | 0 mm | - | 0 W/m² | - |
| 1777982595 | 13.89° C | 37% | 1231.3 hPa | 0 mm | - | 0 W/m² | - |
* Rain latest hour (hover to see other rain measurements)
** Current wind speed in m/s (hover to see current wind gust speed)